Location: Champignolles
(47.0543°N, 4.5663°E)
Time: 04:28:49
(UTC+00:00)

N. Korean satellite - Pass Details

Date: 15 December 2021
Orbit: 447 x 491 km, 97.3° (Epoch: 25 January)

Event Time Altitude Azimuth Distance (km) Brightness Sun altitude
Rises 05:47:58 0° 1° (N) 2,463 10.0 -15.0°
Enters shadow 05:49:08 - 356° (N) 2,002 9.5 -14.8°
Exits shadow 05:56:20 - 231° (SW) 1,756 9.1 -13.7°
Sets 05:58:07 0° 222° (SW) 2,461 9.9 -13.4°
